Volver al catálogo

STARLINK-34968

ActivoComunicacionesSSO
NORAD 65276·PAYLOAD·🇺🇸 United States

Lanzado Aug 22, 2025 desde Vandenberg Space Force Base

Loading…

Próximos Pases (próximas 24 horas)

TLE

ActualizadoSource: CelesTrak SupGP

Época: Sep 15, 2026, 03:23 UTC

1 65276C 25184D   26258.14145833  .00005963  00000+0  18511-3 0  2587
2 65276  97.2836 306.2417 0001018  85.8865  28.9164 15.33437605    14

Sigue STARLINK-34968 en tiempo real con AllMySat

Download on the App Store